| time (UTC) | temp C | wind direction | speed KPH | gust KPH | rain 1hr cm | rain 24hr cm | rain mn cm | humidity % | barometer mb |
| 20260504081518 | 8 | 60 | 1.6 | 3.2 | 0.00 | 0.00 | 0.00 | 73 | 1012.1 |
| 20260504080523 | 8 | 0.0 | 0.0 | 0.00 | 0.00 | 0.00 | 70 | 1012.0 | |
| 20260504050533 | 13 | 23 | 1.6 | 3.2 | 0.00 | 0.00 | 0.00 | 53 | 1011.4 |
| 20260504045528 | 14 | 16 | 1.6 | 4.8 | 0.00 | 0.00 | 0.00 | 51 | 1011.4 |
| 20260504044548 | 14 | 17 | 1.6 | 4.8 | 0.00 | 0.00 | 0.00 | 50 | 1011.3 |
| 20260504043531 | 15 | 0.0 | 0.0 | 0.00 | 0.00 | 0.00 | 49 | 1011.0 | |
| 20260504042549 | 15 | 28 | 1.6 | 3.2 | 0.00 | 0.00 | 0.00 | 48 | 1011.0 |
| 20260504041529 | 16 | 26 | 1.6 | 3.2 | 0.00 | 0.00 | 0.00 | 47 | 1010.9 |
| 20260504040524 | 17 | 42 | 1.6 | 3.2 | 0.00 | 0.00 | 0.00 | 45 | 1010.9 |
| 20260504035518 | 17 | 19 | 1.6 | 3.2 | 0.00 | 0.00 | 0.00 | 43 | 1010.9 |
| 20260504034547 | 18 | 338 | 0.0 | 3.2 | 0.00 | 0.00 | 0.00 | 40 | 1010.7 |
| 20260504033548 | 20 | 23 | 0.0 | 1.6 | 0.00 | 0.00 | 0.00 | 38 | 1010.5 |
| 20260504032525 | 20 | 0.0 | 0.0 | 0.00 | 0.00 | 0.00 | 36 | 1010.5 | |
| 20260504031521 | 21 | 0.0 | 1.6 | 0.00 | 0.00 | 0.00 | 35 | 1010.5 | |
| 20260504030518 | 22 | 270 | 0.0 | 3.2 | 0.00 | 0.00 | 0.00 | 34 | 1010.5 |
| 20260504025519 | 23 | 256 | 1.6 | 4.8 | 0.00 | 0.00 | 0.00 | 32 | 1010.5 |
| 20260504024519 | 24 | 277 | 3.2 | 3.2 | 0.00 | 0.00 | 0.00 | 31 | 1010.5 |
| 20260504023519 | 24 | 261 | 3.2 | 9.7 | 0.00 | 0.00 | 0.00 | 31 | 1010.5 |
| 20260504022519 | 25 | 27 | 3.2 | 4.8 | 0.00 | 0.00 | 0.00 | 31 | 1010.6 |
| 20260504021521 | 25 | 320 | 3.2 | 6.4 | 0.00 | 0.00 | 0.00 | 30 | 1010.6 |
| 20260504020540 | 25 | 23 | 3.2 | 6.4 | 0.00 | 0.00 | 0.00 | 29 | 1010.6 |
| 20260504015517 | 25 | 274 | 3.2 | 8.0 | 0.00 | 0.00 | 0.00 | 29 | 1010.7 |
| 20260504014530 | 25 | 271 | 4.8 | 8.0 | 0.00 | 0.00 | 0.00 | 29 | 1010.8 |
| 20260504013525 | 25 | 272 | 6.4 | 11.3 | 0.00 | 0.00 | 0.00 | 28 | 1010.9 |
| 20260504012520 | 25 | 290 | 6.4 | 9.7 | 0.00 | 0.00 | 0.00 | 28 | 1011.0 |
| 20260504011516 | 25 | 268 | 4.8 | 9.7 | 0.00 | 0.00 | 0.00 | 28 | 1011.0 |
| 20260504010516 | 25 | 161 | 4.8 | 11.3 | 0.00 | 0.00 | 0.00 | 29 | 1011.1 |
| 20260504005519 | 25 | 276 | 4.8 | 8.0 | 0.00 | 0.00 | 0.00 | 28 | 1011.1 |
| 20260504004516 | 26 | 330 | 6.4 | 9.7 | 0.00 | 0.00 | 0.00 | 27 | 1011.2 |
| 20260504003516 | 27 | 337 | 6.4 | 11.3 | 0.00 | 0.00 | 0.00 | 27 | 1011.3 |
| 20260504002610 | 27 | 240 | 6.4 | 11.3 | 0.00 | 0.00 | 0.00 | 28 | 1011.4 |
| 20260504001522 | 27 | 279 | 6.4 | 11.3 | 0.00 | 0.00 | 0.00 | 28 | 1011.5 |
| 20260504000523 | 26 | 314 | 6.4 | 14.5 | 0.00 | 0.00 | 0.00 | 29 | 1011.6 |
| 20260503235516 | 27 | 316 | 8.0 | 11.3 | 0.00 | 0.00 | 0.00 | 29 | 1011.7 |
| 20260503234516 | 27 | 326 | 6.4 | 9.7 | 0.00 | 0.00 | 0.00 | 29 | 1011.7 |
| 20260503233516 | 27 | 260 | 6.4 | 9.7 | 0.00 | 0.00 | 0.00 | 30 | 1011.8 |
| 20260503232527 | 27 | 351 | 8.0 | 12.9 | 0.00 | 0.00 | 0.00 | 29 | 1012.0 |
| 20260503231519 | 26 | 246 | 6.4 | 8.0 | 0.00 | 0.00 | 0.00 | 30 | 1012.2 |
| 20260503230532 | 27 | 300 | 6.4 | 12.9 | 0.00 | 0.00 | 0.00 | 29 | 1012.2 |
| 20260503225532 | 27 | 16 | 8.0 | 14.5 | 0.00 | 0.00 | 0.00 | 29 | 1012.3 |
| 20260503224551 | 27 | 353 | 6.4 | 11.3 | 0.00 | 0.00 | 0.00 | 29 | 1012.4 |
| 20260503223532 | 27 | 313 | 6.4 | 8.0 | 0.00 | 0.00 | 0.00 | 28 | 1012.6 |
| 20260503222526 | 27 | 263 | 6.4 | 11.3 | 0.00 | 0.00 | 0.00 | 29 | 1012.6 |
| 20260503221517 | 26 | 260 | 8.0 | 14.5 | 0.00 | 0.00 | 0.00 | 28 | 1012.6 |
| 20260503220614 | 26 | 262 | 6.4 | 9.7 | 0.00 | 0.00 | 0.00 | 28 | 1012.7 |
| 20260503215526 | 27 | 319 | 6.4 | 12.9 | 0.00 | 0.00 | 0.00 | 27 | 1012.9 |
| 20260503214529 | 26 | 318 | 8.0 | 11.3 | 0.00 | 0.00 | 0.00 | 27 | 1013.0 |
| 20260503213521 | 27 | 260 | 4.8 | 8.0 | 0.00 | 0.00 | 0.00 | 27 | 1013.0 |
| 20260503212522 | 27 | 268 | 6.4 | 14.5 | 0.00 | 0.00 | 0.00 | 28 | 1013.1 |
| 20260503211521 | 26 | 281 | 6.4 | 12.9 | 0.00 | 0.00 | 0.00 | 28 | 1013.2 |
| 20260503210522 | 26 | 282 | 8.0 | 16.1 | 0.00 | 0.00 | 0.00 | 28 | 1013.3 |
| 20260503205522 | 27 | 314 | 6.4 | 11.3 | 0.00 | 0.00 | 0.00 | 28 | 1013.3 |
| 20260503204522 | 26 | 358 | 4.8 | 9.7 | 0.00 | 0.00 | 0.00 | 29 | 1013.4 |
| 20260503203546 | 26 | 49 | 6.4 | 12.9 | 0.00 | 0.00 | 0.00 | 31 | 1013.5 |
| 20260503202518 | 26 | 309 | 4.8 | 8.0 | 0.00 | 0.00 | 0.00 | 30 | 1013.8 |
| 20260503201535 | 26 | 293 | 8.0 | 14.5 | 0.00 | 0.00 | 0.00 | 30 | 1013.8 |
| 20260503200612 | 25 | 272 | 6.4 | 9.7 | 0.00 | 0.00 | 0.00 | 32 | 1013.9 |
| 20260503195526 | 25 | 259 | 4.8 | 6.4 | 0.00 | 0.00 | 0.00 | 33 | 1013.9 |
| 20260503194521 | 25 | 272 | 4.8 | 8.0 | 0.00 | 0.00 | 0.00 | 34 | 1013.9 |
| 20260503193543 | 25 | 286 | 4.8 | 8.0 | 0.00 | 0.00 | 0.00 | 34 | 1014.1 |
| 20260503192517 | 25 | 262 | 8.0 | 11.3 | 0.00 | 0.00 | 0.00 | 35 | 1014.2 |
| 20260503191540 | 25 | 138 | 6.4 | 8.0 | 0.00 | 0.00 | 0.00 | 35 | 1014.5 |
| 20260503190517 | 24 | 185 | 4.8 | 8.0 | 0.00 | 0.00 | 0.00 | 36 | 1014.7 |
| 20260503185517 | 23 | 168 | 3.2 | 6.4 | 0.00 | 0.00 | 0.00 | 37 | 1014.8 |
| 20260503184520 | 25 | 39 | 6.4 | 12.9 | 0.00 | 0.00 | 0.00 | 36 | 1014.9 |
| 20260503183521 | 24 | 244 | 6.4 | 8.0 | 0.00 | 0.00 | 0.00 | 36 | 1014.9 |
| 20260503182603 | 23 | 254 | 3.2 | 6.4 | 0.00 | 0.00 | 0.00 | 38 | 1015.2 |
| 20260503181531 | 23 | 211 | 6.4 | 16.1 | 0.00 | 0.00 | 0.00 | 37 | 1015.2 |
| 20260503180534 | 22 | 239 | 6.4 | 8.0 | 0.00 | 0.00 | 0.00 | 37 | 1015.2 |
| 20260503175532 | 22 | 248 | 4.8 | 6.4 | 0.00 | 0.00 | 0.00 | 38 | 1015.3 |
| 20260503174532 | 22 | 270 | 4.8 | 8.0 | 0.00 | 0.00 | 0.00 | 39 | 1015.6 |
| 20260503173535 | 21 | 245 | 4.8 | 9.7 | 0.00 | 0.00 | 0.00 | 41 | 1015.9 |
| 20260503172536 | 20 | 229 | 4.8 | 9.7 | 0.00 | 0.00 | 0.00 | 42 | 1015.9 |
| 20260503171536 | 20 | 262 | 4.8 | 8.0 | 0.00 | 0.00 | 0.00 | 43 | 1016.0 |
| 20260503170527 | 19 | 138 | 1.6 | 3.2 | 0.00 | 0.00 | 0.00 | 45 | 1016.1 |
| 20260503150542 | 7 | 156 | 4.8 | 6.4 | 0.00 | 0.00 | 0.00 | 77 | 1017.1 |
| 20260503130520 | 4 | 148 | 0.0 | 3.2 | 0.00 | 0.00 | 0.00 | 90 | 1016.5 |
| 20260503110543 | 4 | 0.0 | 0.0 | 0.00 | 0.00 | 0.00 | 87 | 1016.3 |